Regional Weather Roundup
Issued by NWS Nashville, TN

Home | Current Version | Previous Version | Text Only | Print | Product List | Glossary On
Versions: 1 2 3 4 5 6 7 8 9 10 11 12 13 14 15 16 17 18 19 20 21 22 23 24 25 26 27 28 29 30 31 32 33 34 35 36 37 38 39 40 41 42 43 44 45 46 47 48 49 50
000
ASUS44 KOHX 272310
RWROHX
MIDDLE TENNESSEE HOURLY WEATHER ROUNDUP
NATIONAL WEATHER SERVICE NASHVILLE TN
600 PM CDT THU JUL 27 2017

NOTE: "FAIR" INDICATES FEW OR NO CLOUDS BELOW 12,000 FEET WITH
NO SIGNIFICANT WEATHER AND/OR OBSTRUCTIONS TO VISIBILITY.

* THESE REPORTS ARE NOT UNDER NWS QUALITY CONTROL AND MAY NOT
  REPORT WEATHER SUCH AS PRECIPITATION AND FOG.


TNZ005>011-023>034-057-059-062>066-078-080-280000
...NORTHERN MIDDLE TENNESSEE...

CITY           SKY/WX    TMP DP  RH WIND       PRES   REMARKS
CLARKSVILLE    CLOUDY    82  71  69 N9        29.91R
CROSSVILLE     CLOUDY    83  69  62 W7        30.00R
GALLATIN       MOSUNNY   88  73  62 CALM      29.92S HX  96
DICKSON        CLOUDY    86  70  58 SW6       29.92F HX  90
LEBANON        CLOUDY    88  71  56 SW6       29.89S HX  93
NASHVILLE      CLOUDY    88  71  57 SW8       29.91S HX  94
PORTLAND       SUNNY     84  75  74 CALM      29.91S HX  92
SMYRNA         CLOUDY    89  72  56 W9        29.91S HX  96
SPARTA         SUNNY     86  72  62 CALM      29.93S HX  92
SPRINGFIELD    SUNNY     84  75  74 W3        29.90S HX  92
WEST NASHVILLE SUNNY     88  73  62 SW8       29.89R HX  96
$$
TNZ056-058-060-061-075>077-079-093>097-280000
...SOUTHERN MIDDLE TENNESSEE...

CITY           SKY/WX    TMP DP  RH WIND       PRES   REMARKS
COLUMBIA       SUNNY     84  70  61 SW8       29.91S
FAYETTEVILLE   SUNNY     88  73  62 SW5       29.94S HX  96
MCMINNVILLE    SUNNY     88  75  66 S3        29.94F HX  97
MURFREESBORO   CLOUDY    90  70  51 W7        29.90S HX  95
PULASKI        MOSUNNY   88  73  62 NW6       29.92F HX  96
SHELBYVILLE    SUNNY     86  73  66 SW7       29.92F HX  93
TULLAHOMA        N/A     84  72  65 SW6       29.96S
WINCHESTER     SUNNY     88  72  58 CALM      29.95S HX  94
$$


...KEY TO REMARKS...
VSB - VISIBILITY IN MILES
WCI - WIND CHILL INDEX
HX  - HEAT INDEX




USA.gov is the U.S. government's official web portal to all federal, state and local government web resources and services.